Time,TemperatureF,DewpointF,PressureIn,WindDirection,WindDirectionDegrees,WindSpeedMPH,WindSpeedGustMPH,Humidity,HourlyPrecipIn,Conditions,Clouds,dailyrainin,SoftwareType,DateUTC
2013-05-31 00:02:00,44.0,33.0,-100.00,North,0,1.0,4.0,66,-99.99,,,-99.99,,2013-05-31 07:02:00,
2013-05-31 00:11:00,44.0,33.0,-100.00,North,0,1.0,4.0,66,-99.99,,,-99.99,,2013-05-31 07:11:00,
2013-05-31 00:21:00,44.0,33.0,-100.00,North,0,0.0,3.0,66,-99.99,,,-99.99,,2013-05-31 07:21:00,
2013-05-31 00:32:00,42.0,33.0,-100.00,SW,225,3.0,3.0,69,-99.99,,,-99.99,,2013-05-31 07:32:00,
2013-05-31 00:41:00,42.0,33.0,-100.00,SW,225,3.0,3.0,69,-99.99,,,-99.99,,2013-05-31 07:41:00,
2013-05-31 00:52:00,41.0,33.0,-100.00,South,180,3.0,4.0,71,-99.99,,,-99.99,,2013-05-31 07:52:00,
2013-05-31 01:02:00,40.0,32.0,-100.00,South,180,4.0,5.0,72,-99.99,,,-99.99,,2013-05-31 08:02:00,
2013-05-31 01:11:00,40.0,32.0,-100.00,South,180,4.0,5.0,72,-99.99,,,-99.99,,2013-05-31 08:11:00,
2013-05-31 01:21:00,40.0,32.0,-100.00,South,180,6.0,7.0,73,-99.99,,,-99.99,,2013-05-31 08:21:00,
2013-05-31 01:31:00,40.0,32.0,-100.00,South,180,4.0,6.0,74,-99.99,,,-99.99,,2013-05-31 08:31:00,
2013-05-31 01:42:00,40.0,32.0,-100.00,South,180,4.0,6.0,74,-99.99,,,-99.99,,2013-05-31 08:42:00,
2013-05-31 01:51:00,39.0,31.0,-100.00,South,180,4.0,6.0,74,-99.99,,,-99.99,,2013-05-31 08:51:00,
2013-05-31 02:01:00,39.0,31.0,-100.00,South,180,4.0,8.0,75,-99.99,,,-99.99,,2013-05-31 09:01:00,
2013-05-31 02:11:00,39.0,31.0,-100.00,South,180,4.0,8.0,75,-99.99,,,-99.99,,2013-05-31 09:11:00,
2013-05-31 02:21:00,38.0,31.0,-100.00,South,180,4.0,7.0,76,-99.99,,,-99.99,,2013-05-31 09:21:00,
2013-05-31 02:32:00,38.0,32.0,-100.00,South,180,6.0,8.0,77,-99.99,,,-99.99,,2013-05-31 09:32:00,
2013-05-31 02:43:00,38.0,32.0,-100.00,South,180,6.0,8.0,77,-99.99,,,-99.99,,2013-05-31 09:43:00,
2013-05-31 02:53:00,38.0,31.0,-100.00,South,180,6.0,8.0,77,-99.99,,,-99.99,,2013-05-31 09:53:00,
2013-05-31 03:02:00,37.0,31.0,-100.00,South,180,3.0,7.0,77,-99.99,,,-99.99,,2013-05-31 10:02:00,
2013-05-31 03:12:00,37.0,31.0,-100.00,South,180,3.0,7.0,77,-99.99,,,-99.99,,2013-05-31 10:12:00,
2013-05-31 03:22:00,37.0,31.0,-100.00,South,180,7.0,8.0,78,-99.99,,,-99.99,,2013-05-31 10:22:00,
2013-05-31 03:33:00,37.0,31.0,-100.00,South,180,4.0,9.0,79,-99.99,,,-99.99,,2013-05-31 10:33:00,
2013-05-31 03:42:00,36.0,31.0,-100.00,South,180,6.0,7.0,80,-99.99,,,-99.99,,2013-05-31 10:42:00,
2013-05-31 03:52:00,36.0,31.0,-100.00,South,180,6.0,7.0,80,-99.99,,,-99.99,,2013-05-31 10:52:00,
2013-05-31 04:01:00,36.0,31.0,-100.00,South,180,4.0,6.0,80,-99.99,,,-99.99,,2013-05-31 11:01:00,
2013-05-31 04:11:00,36.0,31.0,-100.00,South,180,4.0,6.0,80,-99.99,,,-99.99,,2013-05-31 11:11:00,
2013-05-31 04:22:00,36.0,30.0,-100.00,South,180,4.0,8.0,81,-99.99,,,-99.99,,2013-05-31 11:22:00,
2013-05-31 04:32:00,35.0,30.0,-100.00,South,180,5.0,7.0,83,-99.99,,,-99.99,,2013-05-31 11:32:00,
2013-05-31 04:42:00,35.0,30.0,-100.00,South,180,5.0,7.0,83,-99.99,,,-99.99,,2013-05-31 11:42:00,
2013-05-31 04:52:00,35.0,30.0,-100.00,South,180,6.0,8.0,84,-99.99,,,-99.99,,2013-05-31 11:52:00,
2013-05-31 05:01:00,34.0,30.0,-100.00,South,180,7.0,9.0,84,-99.99,,,-99.99,,2013-05-31 12:01:00,
2013-05-31 05:11:00,34.0,30.0,-100.00,South,180,7.0,9.0,84,-99.99,,,-99.99,,2013-05-31 12:11:00,
2013-05-31 05:21:00,34.0,30.0,-100.00,South,180,7.0,9.0,84,-99.99,,,-99.99,,2013-05-31 12:21:00,
2013-05-31 05:31:00,34.0,30.0,-100.00,South,180,6.0,9.0,84,-99.99,,,-99.99,,2013-05-31 12:31:00,
2013-05-31 05:41:00,34.0,30.0,-100.00,South,180,6.0,9.0,84,-99.99,,,-99.99,,2013-05-31 12:41:00,
2013-05-31 05:51:00,34.0,30.0,-100.00,South,180,6.0,8.0,84,-99.99,,,-99.99,,2013-05-31 12:51:00,
2013-05-31 06:01:00,34.0,30.0,-100.00,South,180,6.0,9.0,85,-99.99,,,-99.99,,2013-05-31 13:01:00,
2013-05-31 06:11:00,34.0,30.0,-100.00,South,180,6.0,9.0,85,-99.99,,,-99.99,,2013-05-31 13:11:00,
2013-05-31 06:21:00,34.0,30.0,-100.00,South,180,6.0,9.0,85,-99.99,,,-99.99,,2013-05-31 13:21:00,
2013-05-31 06:32:00,35.0,31.0,-100.00,South,180,6.0,9.0,83,-99.99,,,-99.99,,2013-05-31 13:32:00,
2013-05-31 06:42:00,35.0,31.0,-100.00,South,180,6.0,9.0,83,-99.99,,,-99.99,,2013-05-31 13:42:00,
2013-05-31 06:52:00,36.0,31.0,-100.00,South,180,6.0,9.0,82,-99.99,,,-99.99,,2013-05-31 13:52:00,
2013-05-31 07:02:00,37.0,32.0,-100.00,South,180,6.0,8.0,80,-99.99,,,-99.99,,2013-05-31 14:02:00,
2013-05-31 07:11:00,37.0,32.0,-100.00,South,180,6.0,8.0,80,-99.99,,,-99.99,,2013-05-31 14:11:00,
2013-05-31 07:21:00,38.0,32.0,-100.00,South,180,6.0,8.0,77,-99.99,,,-99.99,,2013-05-31 14:21:00,
2013-05-31 07:32:00,39.0,32.0,-100.00,SW,225,7.0,11.0,76,-99.99,,,-99.99,,2013-05-31 14:32:00,
2013-05-31 07:41:00,39.0,32.0,-100.00,SW,225,7.0,11.0,76,-99.99,,,-99.99,,2013-05-31 14:41:00,
2013-05-31 07:52:00,40.0,33.0,-100.00,SW,225,6.0,10.0,75,-99.99,,,-99.99,,2013-05-31 14:52:00,
2013-05-31 08:01:00,42.0,34.0,-100.00,SW,225,4.0,8.0,71,-99.99,,,-99.99,,2013-05-31 15:01:00,
2013-05-31 08:11:00,42.0,34.0,-100.00,SW,225,4.0,8.0,71,-99.99,,,-99.99,,2013-05-31 15:11:00,
2013-05-31 08:21:00,44.0,35.0,-100.00,South,180,4.0,6.0,69,-99.99,,,-99.99,,2013-05-31 15:21:00,
2013-05-31 08:33:00,45.0,35.0,-100.00,East,90,2.0,8.0,66,-99.99,,,-99.99,,2013-05-31 15:33:00,
2013-05-31 08:43:00,45.0,35.0,-100.00,East,90,2.0,8.0,66,-99.99,,,-99.99,,2013-05-31 15:43:00,
2013-05-31 08:53:00,47.0,35.0,-100.00,South,180,3.0,8.0,63,-99.99,,,-99.99,,2013-05-31 15:53:00,
2013-05-31 09:03:00,49.0,35.0,-100.00,NE,45,1.0,8.0,60,-99.99,,,-99.99,,2013-05-31 16:03:00,
2013-05-31 09:12:00,49.0,34.0,-100.00,SE,135,6.0,9.0,58,-99.99,,,-99.99,,2013-05-31 16:12:00,
2013-05-31 09:22:00,49.0,34.0,-100.00,SE,135,6.0,9.0,58,-99.99,,,-99.99,,2013-05-31 16:22:00,
2013-05-31 09:33:00,50.0,34.0,-100.00,SW,225,3.0,6.0,55,-99.99,,,-99.99,,2013-05-31 16:33:00,
2013-05-31 09:42:00,50.0,34.0,-100.00,SW,225,3.0,6.0,55,-99.99,,,-99.99,,2013-05-31 16:42:00,
2013-05-31 09:52:00,51.0,35.0,-100.00,North,0,2.0,7.0,53,-99.99,,,-99.99,,2013-05-31 16:52:00,
2013-05-31 10:02:00,51.0,34.0,-100.00,South,180,6.0,12.0,51,-99.99,,,-99.99,,2013-05-31 17:02:00,
2013-05-31 10:12:00,51.0,34.0,-100.00,South,180,6.0,12.0,51,-99.99,,,-99.99,,2013-05-31 17:12:00,
2013-05-31 10:22:00,54.0,35.0,-100.00,SW,225,1.0,4.0,49,-99.99,,,-99.99,,2013-05-31 17:22:00,
2013-05-31 10:32:00,54.0,34.0,-100.00,NE,45,5.0,8.0,48,-99.99,,,-99.99,,2013-05-31 17:32:00,
2013-05-31 10:42:00,54.0,34.0,-100.00,NE,45,5.0,8.0,48,-99.99,,,-99.99,,2013-05-31 17:42:00,
2013-05-31 10:52:00,55.0,34.0,-100.00,SE,135,2.0,6.0,44,-99.99,,,-99.99,,2013-05-31 17:52:00,
2013-05-31 11:01:00,55.0,33.0,-100.00,NE,45,2.0,6.0,42,-99.99,,,-99.99,,2013-05-31 18:01:00,
2013-05-31 11:11:00,55.0,33.0,-100.00,NE,45,2.0,6.0,42,-99.99,,,-99.99,,2013-05-31 18:11:00,
2013-05-31 11:22:00,57.0,34.0,-100.00,West,270,3.0,6.0,41,-99.99,,,-99.99,,2013-05-31 18:22:00,
2013-05-31 11:31:00,59.0,34.0,-100.00,South,180,2.0,6.0,39,-99.99,,,-99.99,,2013-05-31 18:31:00,
2013-05-31 11:41:00,59.0,34.0,-100.00,South,180,2.0,6.0,39,-99.99,,,-99.99,,2013-05-31 18:41:00,
2013-05-31 11:52:00,58.0,30.0,-100.00,SW,225,6.0,9.0,35,-99.99,,,-99.99,,2013-05-31 18:52:00,
2013-05-31 12:01:00,60.0,31.0,-100.00,South,180,3.0,7.0,33,-99.99,,,-99.99,,2013-05-31 19:01:00,
2013-05-31 12:11:00,60.0,31.0,-100.00,South,180,3.0,7.0,33,-99.99,,,-99.99,,2013-05-31 19:11:00,
2013-05-31 12:22:00,60.0,30.0,-100.00,North,0,5.0,8.0,31,-99.99,,,-99.99,,2013-05-31 19:22:00,
2013-05-31 12:31:00,62.0,31.0,-100.00,North,0,4.0,6.0,31,-99.99,,,-99.99,,2013-05-31 19:31:00,
2013-05-31 12:42:00,62.0,31.0,-100.00,North,0,4.0,6.0,31,-99.99,,,-99.99,,2013-05-31 19:42:00,
2013-05-31 12:52:00,61.0,31.0,-100.00,NW,315,3.0,9.0,32,-99.99,,,-99.99,,2013-05-31 19:52:00,
2013-05-31 13:01:00,62.0,30.0,-100.00,North,0,5.0,9.0,29,-99.99,,,-99.99,,2013-05-31 20:01:00,
2013-05-31 13:11:00,62.0,30.0,-100.00,North,0,5.0,9.0,29,-99.99,,,-99.99,,2013-05-31 20:11:00,
2013-05-31 13:22:00,63.0,29.0,-100.00,SW,225,1.0,11.0,28,-99.99,,,-99.99,,2013-05-31 20:22:00,
2013-05-31 13:31:00,64.0,28.0,-100.00,North,0,6.0,10.0,26,-99.99,,,-99.99,,2013-05-31 20:31:00,
2013-05-31 13:41:00,64.0,28.0,-100.00,North,0,6.0,10.0,26,-99.99,,,-99.99,,2013-05-31 20:41:00,
2013-05-31 13:51:00,65.0,28.0,-100.00,NE,45,9.0,12.0,25,-99.99,,,-99.99,,2013-05-31 20:51:00,
2013-05-31 14:01:00,65.0,28.0,-100.00,NE,45,6.0,11.0,25,-99.99,,,-99.99,,2013-05-31 21:01:00,
2013-05-31 14:11:00,65.0,28.0,-100.00,NE,45,6.0,11.0,25,-99.99,,,-99.99,,2013-05-31 21:11:00,
2013-05-31 14:22:00,66.0,28.0,-100.00,SW,225,1.0,7.0,24,-99.99,,,-99.99,,2013-05-31 21:22:00,
2013-05-31 14:32:00,66.0,28.0,-100.00,North,0,6.0,10.0,24,-99.99,,,-99.99,,2013-05-31 21:32:00,
2013-05-31 14:42:00,66.0,28.0,-100.00,North,0,6.0,10.0,24,-99.99,,,-99.99,,2013-05-31 21:42:00,
2013-05-31 14:53:00,66.0,27.0,-100.00,North,0,6.0,11.0,23,-99.99,,,-99.99,,2013-05-31 21:53:00,
2013-05-31 15:02:00,67.0,28.0,-100.00,West,270,6.0,11.0,23,-99.99,,,-99.99,,2013-05-31 22:02:00,
2013-05-31 15:12:00,68.0,28.0,-100.00,NW,315,8.0,10.0,23,-99.99,,,-99.99,,2013-05-31 22:12:00,
2013-05-31 15:22:00,68.0,28.0,-100.00,NW,315,8.0,10.0,23,-99.99,,,-99.99,,2013-05-31 22:22:00,
2013-05-31 15:33:00,67.0,28.0,-100.00,North,0,5.0,11.0,23,-99.99,,,-99.99,,2013-05-31 22:33:00,
2013-05-31 15:41:00,67.0,28.0,-100.00,North,0,5.0,11.0,23,-99.99,,,-99.99,,2013-05-31 22:41:00,
2013-05-31 15:52:00,68.0,29.0,-100.00,NE,45,6.0,14.0,24,-99.99,,,-99.99,,2013-05-31 22:52:00,
2013-05-31 16:02:00,68.0,29.0,-100.00,North,0,10.0,16.0,24,-99.99,,,-99.99,,2013-05-31 23:02:00,
2013-05-31 16:12:00,68.0,29.0,-100.00,North,0,10.0,16.0,24,-99.99,,,-99.99,,2013-05-31 23:12:00,
2013-05-31 16:21:00,68.0,30.0,-100.00,NE,45,2.0,12.0,24,-99.99,,,-99.99,,2013-05-31 23:21:00,
2013-05-31 16:32:00,68.0,30.0,-100.00,North,0,8.0,12.0,24,-99.99,,,-99.99,,2013-05-31 23:32:00,
2013-05-31 16:42:00,68.0,30.0,-100.00,North,0,8.0,12.0,24,-99.99,,,-99.99,,2013-05-31 23:42:00,
2013-05-31 16:52:00,68.0,30.0,-100.00,NE,45,7.0,12.0,24,-99.99,,,-99.99,,2013-05-31 23:52:00,
2013-05-31 17:01:00,68.0,30.0,-100.00,West,270,6.0,12.0,24,-99.99,,,-99.99,,2013-06-01 00:01:00,
2013-05-31 17:11:00,68.0,30.0,-100.00,West,270,6.0,12.0,24,-99.99,,,-99.99,,2013-06-01 00:11:00,
2013-05-31 17:22:00,68.0,30.0,-100.00,West,270,6.0,12.0,24,-99.99,,,-99.99,,2013-06-01 00:22:00,
2013-05-31 17:52:00,68.0,31.0,-100.00,North,0,9.0,14.0,25,-99.99,,,-99.99,,2013-06-01 00:52:00,
2013-05-31 18:01:00,68.0,32.0,-100.00,NW,315,4.0,13.0,26,-99.99,,,-99.99,,2013-06-01 01:01:00,
2013-05-31 18:11:00,68.0,32.0,-100.00,NW,315,4.0,13.0,26,-99.99,,,-99.99,,2013-06-01 01:11:00,
2013-05-31 18:21:00,67.0,31.0,-100.00,North,0,10.0,17.0,26,-99.99,,,-99.99,,2013-06-01 01:21:00,
2013-05-31 18:32:00,68.0,32.0,-100.00,North,0,10.0,16.0,27,-99.99,,,-99.99,,2013-06-01 01:32:00,
2013-05-31 18:42:00,68.0,32.0,-100.00,North,0,10.0,16.0,27,-99.99,,,-99.99,,2013-06-01 01:42:00,
2013-05-31 18:52:00,68.0,33.0,-100.00,North,0,9.0,14.0,27,-99.99,,,-99.99,,2013-06-01 01:52:00,
2013-05-31 19:01:00,67.0,33.0,-100.00,NW,315,11.0,15.0,28,-99.99,,,-99.99,,2013-06-01 02:01:00,
2013-05-31 19:11:00,67.0,33.0,-100.00,NW,315,11.0,15.0,28,-99.99,,,-99.99,,2013-06-01 02:11:00,
2013-05-31 19:21:00,68.0,33.0,-100.00,North,0,7.0,13.0,28,-99.99,,,-99.99,,2013-06-01 02:21:00,
2013-05-31 19:32:00,66.0,32.0,-100.00,North,0,9.0,17.0,28,-99.99,,,-99.99,,2013-06-01 02:32:00,
2013-05-31 19:42:00,66.0,32.0,-100.00,North,0,9.0,17.0,28,-99.99,,,-99.99,,2013-06-01 02:42:00,
2013-05-31 19:51:00,66.0,33.0,-100.00,North,0,6.0,15.0,29,-99.99,,,-99.99,,2013-06-01 02:51:00,
2013-05-31 20:01:00,66.0,33.0,-100.00,North,0,6.0,15.0,29,-99.99,,,-99.99,,2013-06-01 03:01:00,
2013-05-31 20:11:00,66.0,33.0,-100.00,North,0,6.0,15.0,29,-99.99,,,-99.99,,2013-06-01 03:11:00,
2013-05-31 20:21:00,65.0,32.0,-100.00,North,0,9.0,17.0,29,-99.99,,,-99.99,,2013-06-01 03:21:00,
2013-05-31 20:33:00,64.0,32.0,-100.00,North,0,7.0,11.0,30,-99.99,,,-99.99,,2013-06-01 03:33:00,
2013-05-31 20:43:00,64.0,32.0,-100.00,North,0,7.0,11.0,30,-99.99,,,-99.99,,2013-06-01 03:43:00,
2013-05-31 20:53:00,63.0,31.0,-100.00,North,0,10.0,14.0,30,-99.99,,,-99.99,,2013-06-01 03:53:00,
2013-05-31 21:02:00,62.0,31.0,-100.00,North,0,6.0,9.0,31,-99.99,,,-99.99,,2013-06-01 04:02:00,
2013-05-31 21:12:00,62.0,31.0,-100.00,North,0,6.0,9.0,31,-99.99,,,-99.99,,2013-06-01 04:12:00,
2013-05-31 21:23:00,62.0,31.0,-100.00,North,0,3.0,7.0,31,-99.99,,,-99.99,,2013-06-01 04:23:00,
2013-05-31 21:33:00,61.0,31.0,-100.00,North,0,3.0,6.0,32,-99.99,,,-99.99,,2013-06-01 04:33:00,
2013-05-31 21:42:00,61.0,31.0,-100.00,North,0,3.0,6.0,32,-99.99,,,-99.99,,2013-06-01 04:42:00,
2013-05-31 21:53:00,59.0,31.0,-100.00,NW,315,3.0,5.0,35,-99.99,,,-99.99,,2013-06-01 04:53:00,
2013-05-31 22:02:00,59.0,31.0,-100.00,NW,315,3.0,5.0,35,-99.99,,,-99.99,,2013-06-01 05:02:00,
2013-05-31 22:12:00,59.0,31.0,-100.00,NW,315,3.0,5.0,35,-99.99,,,-99.99,,2013-06-01 05:12:00,
2013-05-31 22:22:00,58.0,32.0,-100.00,NW,315,4.0,6.0,37,-99.99,,,-99.99,,2013-06-01 05:22:00,
2013-05-31 22:32:00,58.0,32.0,-100.00,NW,315,4.0,8.0,38,-99.99,,,-99.99,,2013-06-01 05:32:00,
2013-05-31 22:42:00,58.0,32.0,-100.00,NW,315,4.0,8.0,38,-99.99,,,-99.99,,2013-06-01 05:42:00,
2013-05-31 22:52:00,58.0,32.0,-100.00,NW,315,3.0,6.0,38,-99.99,,,-99.99,,2013-06-01 05:52:00,
2013-05-31 23:01:00,57.0,32.0,-100.00,NW,315,5.0,7.0,39,-99.99,,,-99.99,,2013-06-01 06:01:00,
2013-05-31 23:12:00,57.0,32.0,-100.00,NW,315,5.0,7.0,39,-99.99,,,-99.99,,2013-06-01 06:12:00,
2013-05-31 23:22:00,56.0,32.0,-100.00,West,270,4.0,6.0,40,-99.99,,,-99.99,,2013-06-01 06:22:00,
2013-05-31 23:32:00,56.0,33.0,-100.00,NW,315,4.0,8.0,41,-99.99,,,-99.99,,2013-06-01 06:32:00,
2013-05-31 23:42:00,56.0,33.0,-100.00,NW,315,4.0,8.0,41,-99.99,,,-99.99,,2013-06-01 06:42:00,
2013-05-31 23:52:00,56.0,33.0,-100.00,NW,315,3.0,8.0,42,-99.99,,,-99.99,,2013-06-01 06:52:00,